User: anonymous   Login
Location: Pian di Sc�
(43.6333°N, 11.5500°E)
Time: 13:57:36
(UTC+00:00)
Language:

CBERS-1 - Orbit

View from above orbital plane
View from above orbital plane
View from above satellite
View from above satellite

Ground track
Ground track

The orbit data is extracted from the following two-line orbital elements,

1 25940U 99057A   20294.43398207 -.00000000 +00000-0 +15411-4 0  9990
2 25940 098.6210 238.9572 0004857 351.4031 008.7070 14.35513684101032
Epoch (UTC): 20 October 2020 10:24:56
Eccentricity: 0.0004857
inclination: 98.6210°
perigee height: 770 km
apogee height: 777 km
right ascension of ascending node: 238.9572°
argument of perigee: 351.4031°
revolutions per day: 14.35513684
mean anomaly at epoch: 8.7070°
orbit number at epoch: 10103

The dashed part of the orbit path shows where the satellite is in the earth's shadow,  

DLR